Regional Weather Roundup
Issued by NWS

Home | Current Version | Previous Version | Text Only | Print | Product List | Glossary Off
Versions: 1 2 3 4 5 6 7 8 9 10 11 12 13 14 15 16 17 18 19 20 21 22 23 24 25 26 27 28 29 30 31 32 33 34 35 36 37 38 39 40 41 42 43 44 45 46 47 48 49 50

302
ASUS43 KLOT 240508
RWRIL

ILLINOIS REGIONAL WEATHER ROUNDUP
NATIONAL WEATHER SERVICE CHICAGO/ROMEOVILLE IL
1100 PM CST THU FEB 23 2017

NOTE: "FAIR" INDICATES FEW OR NO CLOUDS BELOW 12,000 FEET WITH NO
SIGNIFICANT WEATHER AND/OR OBSTRUCTIONS TO VISIBILITY.

* THESE STATIONS ARE NOT UNDER NWS QUALITY CONTROL. THEY ALSO MAY NOT
  REPORT WEATHER SUCH AS PRECIPITATION OR FOG.

ILZ001-002-007-009-015-016-024-240600-
NORTHWEST ILLINOIS

CITY           SKY/WX    TMP DP  RH WIND       PRES   REMARKS
MOLINE         CLOUDY    41  35  79 E20       29.58F
STERLING*      TSTM      37  35  92 NE12G23   29.66R WCI  29
SAVANNA*       CLOUDY    36  33  88 NE20G29   29.63F WCI  25
$$

ILZ003-004-008-010-011-017-018-240600-
NORTH CENTRAL ILLINOIS

CITY           SKY/WX    TMP DP  RH WIND       PRES   REMARKS
ROCKFORD       CLOUDY    38  34  85 NE18G26   29.70F WCI  28
FREEPORT*      CLOUDY    34  33  95 NE23      29.68F WCI  22
ROCHELLE*      CLOUDY    37  36  96 NE18      29.67F WCI  27
DE KALB*       CLOUDY    38  37  96 NE18G24   29.67F WCI  28
PERU*          CLOUDY    38  37  93 E15       29.61F WCI  30
$$

ILZ005-006-012>014-019>023-240600-
NORTHEAST ILLINOIS

CITY           SKY/WX    TMP DP  RH WIND       PRES   REMARKS
CHICAGO-OHARE  CLOUDY    40  37  89 NE16      29.67F
CHICAGO-MIDWAY CLOUDY    41  38  89 NE9       29.68F
AURORA         CLOUDY    40  37  89 NE20G26   29.64F
LANSING*       CLOUDY    39  39 100 NE8       29.68F WCI  33
JOLIET*        CLOUDY    41  40  96 E8        29.64F
WAUKEGAN       CLOUDY    37  36  96 NE17G23   29.72F WCI  27
DUPAGE AIRPORT LGT RAIN  38  35  89 NE16      29.65F WCI  29
KANKAKEE*      CLOUDY    40  39  96 NE7       29.66F
WHEELING       LGT RAIN  38  36  92 NE13      29.72F WCI  30
MORRIS*        CLOUDY    40  38  93 E8        29.64F
ROMEOVILLE*    CLOUDY    39  39 100 E20G25    29.63F WCI  30
NORTHERLY ISL    N/A     39  37  92 MISG        N/A
$$

LMZ740>746-240600-
SOUTHERN LAKE MICHIGAN

STATION/POSITION SKY/WX   TEMP    WIND        PRES    VSBY  WAVE
                          AIR SEA DIR/SP/G                  HT/PER
                          (F)     (DEG/KT/KT) (MB)    (MI)  (FT/S)
HARRISON CRIB              38     360/ 10/ 12   N/A
BURNHAM HARBOR             38     360/ 12/ 12   N/A
CALUMET HARBOR             38     360/  9/ 12 1005.2F
BURNS HARBOR               37      60/  4/  8 1006.1F
MICHIGAN CITY              38      60/  5/  6   N/A
$$

ILZ025>027-034>036-040-047-049-050-058-095>099-240600-
WEST-CENTRAL ILLINOIS

CITY           SKY/WX    TMP DP  RH WIND       PRES   REMARKS
QUINCY         CLEAR     55  53  93 E13       29.46F
GALESBURG*     CLOUDY    43  41  94 NE13G18   29.54F
MACOMB*        MOCLDY    47  46  95 E10       29.54F
JACKSONVILLE*  MOCLDY    58  53  82 SE7       29.51R
PITTSFIELD*    CLOUDY    60  55  82 SE6       29.49R
$$

ILZ028>032-037-038-041>044-048-051>054-059>061-240600-
CENTRAL ILLINOIS

CITY           SKY/WX    TMP DP  RH WIND       PRES   REMARKS
PONTIAC        CLOUDY    42  41  99 E13       29.61F
BLOOMINGTON    CLOUDY    44  43  96 NE15      29.60F
DECATUR        MOCLDY    57  52  83 E9        29.58S
PEORIA         CLOUDY    44  42  93 E17       29.55F
LACON*         CLOUDY    40  39  98 E8        29.58F
LINCOLN*       CLOUDY    55  53  90 E8G16     29.56F
SPRINGFIELD    CLOUDY    61  53  75 SE13      29.53F
TAYLORVILLE    CLOUDY    60  54  78 SE16      29.53F
$$

ILZ033-039-045-046-055>057-062-063-240600-
EAST-CENTRAL ILLINOIS

CITY           SKY/WX    TMP DP  RH WIND       PRES   REMARKS
CHAMPAIGN      CLOUDY    55  50  83 NE9       29.62R
RANTOUL*       CLOUDY    51  48  89 NE6       29.64R
MATTOON        CLOUDY    61  54  77 SE13      29.59F
PARIS*         MOCLDY    57  55  90 SE9       29.63S
$$

ILZ079-100>102-240600-
SOUTHWEST ILLINOIS

CITY           SKY/WX    TMP DP  RH WIND       PRES   REMARKS
ALTON          CLOUDY    60  54  78 SE12      29.52F
BELLEVILLE     CLOUDY    61  58  88 E5        29.54R
CAHOKIA*       CLOUDY    63  53  70 SE8       29.52F
SPARTA*        CLOUDY    65  55  69 S20G25    29.55S
$$

ILZ064>066-069>071-074>076-080>082-084>086-088>090-092>094-240600-
SOUTH-CENTRAL ILLINOIS

CITY           SKY/WX    TMP DP  RH WIND       PRES   REMARKS
CARBONDALE     PTCLDY    64  57  78 S14       29.58R
CAIRO*         PTCLDY    63  57  81 S15G24    29.63S
EFFINGHAM*     MOCLDY    61  55  82 E10       29.60F
MARION         MOCLDY    66  59  77 S20G26    29.60S
MT. VERNON     MOCLDY    63  55  75 SE9       29.59F
CENTRALIA*     PTCLDY    64  56  78 SE12G17   29.56F
SALEM*         MOCLDY    64  54  71 SE8       29.57F
METROPOLIS*    CLOUDY    64  56  75 S9        29.65S
$$

ILZ067-068-072-073-078-083-087-091-240600-
SOUTHEAST ILLINOIS

CITY           SKY/WX    TMP DP  RH WIND       PRES   REMARKS
LAWRENCEVILLE  CLOUDY    61  55  81 S12       29.64F
FLORA*         CLOUDY    63  55  76 SE13      29.61S
FAIRFIELD*     CLOUDY    64  55  74 S9        29.61S
HARRISBURG*    MOCLDY    65  57  74 S17       29.62R
ROBINSON*      CLOUDY    60  54  82 SE7       29.65S
CARMI*         CLOUDY    60  55  82 SE8       29.63R
$$

ABBREVIATIONS USED IN REMARKS
   TC - TEMPERATURE IN CELSIUS
  WCI - WIND CHILL INDEX
   HX - HEAT INDEX
  VSB - VISIBILITY
$$





USA.gov is the U.S. government's official web portal to all federal, state and local government web resources and services.